This demonstration page uses our WeatherBlox Daily Observations layout. Learn more.

Left ArrowRight Arrow

53.62937, 11.41316

Hourly Observations for April 15, 2018

Temp ( °F °C ) Dew Point ( °F °C ) Humidity (%) Winds ( mph kmh ) Pressure ( in mb ) Visibility ( mi km ) Precip ( " mm )
6:50 am 06:50 Mostly Cloudy with Mist and Fog 46 8 46 8 100 100 VRB 1 2 30.03 1017 1 2 N/A
7:20 am 07:20 Mostly Cloudy with Fog 45 7 45 7 100 100 VRB 2 4 30.03 1017 0 0 N/A
7:50 am 07:50 Mostly Cloudy with Fog 45 7 45 7 100 100 VRB 2 4 30.00 1016 0 0 N/A
8:20 am 08:20 Mostly Cloudy with Fog 45 7 45 7 100 100 SE 3 6 30.00 1016 0 0 N/A
8:50 am 08:50 Mostly Cloudy with Fog 45 7 45 7 100 100 SE 3 6 30.00 1016 1 1 N/A
9:20 am 09:20 Partly Cloudy with Mist and Fog 46 8 46 8 100 100 SE 3 6 30.00 1016 1 2 N/A
9:50 am 09:50 Mostly Cloudy with Mist and Fog 48 9 48 9 100 100 SE 3 6 30.00 1016 2 4 N/A
10:20 am 10:20 Mostly Cloudy with Mist and Fog 50 10 48 9 94 94 VRB 2 4 30.00 1016 2 4 N/A
10:50 am 10:50 Mostly Cloudy with Mist and Fog 50 10 48 9 94 94 VRB 1 2 30.00 1016 2 4 N/A
11:20 am 11:20 Mostly Cloudy with Light Rain 50 10 48 9 94 94 VRB 1 2 30.00 1016 2 4 N/A
11:50 am 11:50 Mostly Cloudy with Light Rain 50 10 48 9 94 94 N N/A 30.00 1016 2 4 N/A
12:20 pm 12:20 Mostly Cloudy with Light Rain 50 10 50 10 100 100 E 3 6 30.00 1016 1 2 N/A
12:50 pm 12:50 Cloudy with Light Rain 50 10 50 10 100 100 E 3 6 29.97 1015 1 2 N/A
1:20 pm 13:20 Cloudy with Light Rain 50 10 50 10 100 100 ESE 3 6 29.97 1015 1 2 N/A
1:50 pm 13:50 Mostly Cloudy with Light Rain 50 10 50 10 100 100 ENE 3 6 29.97 1015 1 2 N/A
2:20 pm 14:20 Cloudy with Mist and Fog 50 10 50 10 100 100 NE 7 11 29.94 1014 2 3 N/A
2:50 pm 14:50 Mostly Cloudy with Mist and Fog 52 11 52 11 100 100 ENE 7 11 29.94 1014 2 4 N/A
3:20 pm 15:20 Mostly Cloudy with Mist and Fog 52 11 52 11 100 100 ENE 9 15 29.94 1014 3 5 N/A
3:50 pm 15:50 Mostly Cloudy with Mist and Fog 52 11 52 11 100 100 ENE 8 13 29.91 1013 3 5 N/A
4:20 pm 16:20 Mostly Cloudy 52 11 52 11 100 100 E 8 13 29.91 1013 3 5 N/A
4:50 pm 16:50 Mostly Cloudy with Mist and Fog 52 11 52 11 100 100 E 8 13 29.91 1013 3 5 N/A
5:20 pm 17:20 Mostly Cloudy 52 11 52 11 100 100 ENE 8 13 29.91 1013 4 6 N/A
5:50 pm 17:50 Partly Cloudy 52 11 52 11 100 100 ENE 7 11 29.91 1013 4 6 N/A
6:20 pm 18:20 Mostly Cloudy 52 11 52 11 100 100 E 7 11 29.91 1013 4 6 N/A
6:50 pm 18:50 Mostly Cloudy 52 11 52 11 100 100 E 3 6 29.91 1013 4 6 N/A
7:20 pm 19:20 Mostly Cloudy 54 12 52 11 94 94 ENE 5 7 29.91 1013 4 6 N/A
7:50 pm 19:50 Partly Cloudy 52 11 52 11 100 100 ENE 5 7 29.91 1013 4 6 N/A
8:20 pm 20:20 Mostly Cloudy 50 10 50 10 100 100 N 3 6 29.91 1013 3 5 N/A
8:50 pm 20:50 Mostly Cloudy with Mist and Fog 48 9 48 9 100 100 N 3 6 29.91 1013 2 4 N/A

Powered by AerisWeather